Bookmark and Share
Track history (hours):
 

Tenaka

Last reported at 2014-Apr-19 21:33 UTC. Time now 2014-Apr-19 22:19 UTC.
Position N 50°07' W 125°12'.

Length 50 m; draft 2.6 m.

Type: Passenger vessel. MMSI: 316001272.

NotesDate/timePositionNaut miles runAvg speedWind from/ knotsBaromVisibWave heightAir tempDewpointWater temp
2014-Apr-19 21:33N 50°07' W 125°12'3 2.7
2014-Apr-19 20:30N 50°07' W 125°08'3 3.2
2014-Apr-19 19:31N 50°06' W 125°13'4 3.5
2014-Apr-19 18:29N 50°06' W 125°07'4 4.0
2014-Apr-19 17:33N 50°06' W 125°13'4 3.6
2014-Apr-19 16:30N 50°06' W 125°07'4 4.1
2014-Apr-19 15:33N 50°06' W 125°13'0 0.0
2014-Apr-19 01:31N 50°06' W 125°13'2 1.7
2014-Apr-19 00:20N 50°07' W 125°10'2 2.6
2014-Apr-18 23:32N 50°06' W 125°13'1 0.6
2014-Apr-18 22:13N 50°07' W 125°12'1 0.7
2014-Apr-18 21:29N 50°06' W 125°12'2 2.0
2014-Apr-18 20:22N 50°07' W 125°09'2 2.5
2014-Apr-18 19:29N 50°06' W 125°13'4 4.2
2014-Apr-18 18:32N 50°06' W 125°06'4 3.7
2014-Apr-18 17:28N 50°06' W 125°13'1 0.5
2014-Apr-18 16:13N 50°07' W 125°12'1 0.9
2014-Apr-18 15:28N 50°06' W 125°13'4 0.3
2014-Apr-18 02:29N 50°06' W 125°06'4 4.2
2014-Apr-18 01:33N 50°06' W 125°13'4 3.4
2014-Apr-18 00:31N 50°06' W 125°07'2 2.1
2014-Apr-17 23:33N 50°06' W 125°10'1 0.4
2014-Apr-17 22:22N 50°07' W 125°10'1 0.5
2014-Apr-17 20:32N 50°07' W 125°12'4 3.3
2014-Apr-17 19:12N 50°06' W 125°05'5 6.8
2014-Apr-17 18:30N 50°06' W 125°13'3 2.9
2014-Apr-17 17:32N 50°06' W 125°08'1 1.2
2014-Apr-17 16:31N 50°07' W 125°10'2 1.7
2014-Apr-17 15:34N 50°06' W 125°13'3 0.2
2014-Apr-17 02:09N 50°06' W 125°08'3 5.5
2014-Apr-17 01:33N 50°06' W 125°13'1 1.1
2014-Apr-17 00:17N 50°07' W 125°10'1 1.7
2014-Apr-16 23:31N 50°06' W 125°13'4 3.6
2014-Apr-16 22:29N 50°06' W 125°07'4 3.8
2014-Apr-16 21:31N 50°06' W 125°13'1 0.5
2014-Apr-16 20:11N 50°07' W 125°12'2 1.4
2014-Apr-16 18:31N 50°06' W 125°08'3 3.0
2014-Apr-16 17:33N 50°06' W 125°13'3 2.4
2014-Apr-16 16:23N 50°06' W 125°08'3 3.1
2014-Apr-16 15:30N 50°06' W 125°13'4 0.3
2014-Apr-16 02:13N 50°06' W 125°07'3 4.6
2014-Apr-16 01:33N 50°07' W 125°12'2 2.2
2014-Apr-16 00:32N 50°06' W 125°08'3 2.9
2014-Apr-15 23:32N 50°06' W 125°13'2 1.2
2014-Apr-15 22:17N 50°07' W 125°10'2 2.0
2014-Apr-15 21:32N 50°06' W 125°13'2 1.9
2014-Apr-15 20:20N 50°06' W 125°09'2 2.5
2014-Apr-15 19:27N 50°06' W 125°13'1 1.0
2014-Apr-15 18:09N 50°07' W 125°11'1 1.9
2014-Apr-15 17:29N 50°06' W 125°13'3 3.4
2014-Apr-15 16:29N 50°06' W 125°07'3 3.6
2014-Apr-15 15:33N 50°06' W 125°13'0 0.0
2014-Apr-15 00:34N 50°06' W 125°13'1 0.3
2014-Apr-14 22:32N 50°07' W 125°12'1 0.4
2014-Apr-14 20:30N 50°06' W 125°13'4 3.9
2014-Apr-14 19:30N 50°06' W 125°07'4 4.1
2014-Apr-14 18:33N 50°06' W 125°13'4 4.0
2014-Apr-14 17:32N 50°06' W 125°06'1 1.4
2014-Apr-14 16:32N 50°07' W 125°08'1 1.3
2014-Apr-14 15:33N 50°07' W 125°10'1 0.1
2014-Apr-13 22:25N 50°07' W 125°09'3 2.9
2014-Apr-13 21:29N 50°06' W 125°13'3 2.3
2014-Apr-13 20:23N 50°06' W 125°09'3 2.9
2014-Apr-13 19:30N 50°06' W 125°13'3 2.8
2014-Apr-13 18:25N 50°06' W 125°08'3 3.5
2014-Apr-13 17:33N 50°06' W 125°13'0 0.0
2014-Apr-13 01:28N 50°06' W 125°13'3 3.4
2014-Apr-13 00:28N 50°07' W 125°07'3 2.8
2014-Apr-12 23:30N 50°07' W 125°12'2 2.3
2014-Apr-12 22:32N 50°06' W 125°08'3 2.8
2014-Apr-12 21:29N 50°06' W 125°13'4 4.3
2014-Apr-12 20:31N 50°06' W 125°06'4 4.1
2014-Apr-12 19:31N 50°06' W 125°13'3 2.5
2014-Apr-12 18:24N 50°06' W 125°08'3 3.2
2014-Apr-12 17:33N 50°06' W 125°13'4 3.8
2014-Apr-12 16:30N 50°06' W 125°06'4 4.0
2014-Apr-12 15:29N 50°06' W 125°13'3 0.2
2014-Apr-12 02:04N 50°06' W 125°08'3 4.4
2014-Apr-12 01:31N 50°07' W 125°12'4 3.7
2014-Apr-12 00:33N 50°06' W 125°07'4 3.6
2014-Apr-11 23:31N 50°06' W 125°13'3 2.7
2014-Apr-11 22:25N 50°07' W 125°08'3 3.2
2014-Apr-11 21:29N 50°06' W 125°13'4 4.5
2014-Apr-11 20:32N 50°06' W 125°06'4 4.1
2014-Apr-11 19:29N 50°06' W 125°13'4 3.9
2014-Apr-11 18:30N 50°07' W 125°07'4 4.0
2014-Apr-11 17:33N 50°06' W 125°13'2 2.0
2014-Apr-11 16:25N 50°06' W 125°09'2 2.6
2014-Apr-11 15:30N 50°06' W 125°13'5 0.4
2014-Apr-11 02:15N 50°06' W 125°05'5 6.7
2014-Apr-11 01:32N 50°06' W 125°13'3 2.6
2014-Apr-11 00:27N 50°07' W 125°08'3 3.1
2014-Apr-10 23:33N 50°06' W 125°13'3 3.0
2014-Apr-10 22:28N 50°07' W 125°08'3 3.3
2014-Apr-10 21:30N 50°06' W 125°13'4 3.6
2014-Apr-10 20:30N 50°06' W 125°07'4 3.7
2014-Apr-10 19:34N 50°06' W 125°13'3 2.5
2014-Apr-10 18:30N 50°06' W 125°09'3 2.8
2014-Apr-10 17:33N 50°06' W 125°13'2 1.8
2014-Apr-10 16:22N 50°07' W 125°09'2 0.1
2014-Apr-10 01:31N 50°06' W 125°13'2 1.3
2014-Apr-10 00:23N 50°07' W 125°10'1 1.7
2014-Apr-09 23:30N 50°06' W 125°12'  

Dump ship's entire track history

sailing weather and tide predictions

Tenaka — CY7449 — position and weather